| time (UTC) | temp F | wind direction | speed knots | gust knots | rain 1hr in | rain 24hr in | rain mn in | humidity % | barometer mb |
| 20260510130503 | 39 | 306 | 2.6 | 8.7 | 0.00 | 0.28 | 0.00 | 79 | 1015.6 |
| 20260510125504 | 39 | 319 | 4.3 | 12.2 | 0.00 | 0.28 | 0.00 | 79 | 1015.6 |
| 20260510124003 | 39 | 314 | 2.6 | 14.8 | 0.00 | 0.28 | 0.00 | 80 | 1014.9 |
| 20260510123504 | 39 | 271 | 2.6 | 14.8 | 0.00 | 0.28 | 0.00 | 80 | 1015.2 |
| 20260510123004 | 39 | 307 | 2.6 | 7.8 | 0.00 | 0.28 | 0.00 | 80 | 1014.9 |
| 20260510121504 | 39 | 301 | 6.1 | 7.8 | 0.00 | 0.28 | 0.00 | 80 | 1014.6 |
| 20260510121003 | 38 | 352 | 1.7 | 8.7 | 0.00 | 0.28 | 0.00 | 81 | 1014.6 |
| 20260510120503 | 38 | 254 | 1.7 | 8.7 | 0.00 | 0.28 | 0.00 | 81 | 1014.2 |
| 20260510120003 | 38 | 297 | 5.2 | 8.7 | 0.00 | 0.28 | 0.00 | 81 | 1014.6 |
| 20260510115505 | 38 | 211 | 1.7 | 7.8 | 0.00 | 0.28 | 0.00 | 81 | 1014.2 |
| 20260510115003 | 38 | 308 | 2.6 | 10.4 | 0.00 | 0.28 | 0.00 | 82 | 1014.2 |
| 20260510114503 | 37 | 309 | 1.7 | 10.4 | 0.00 | 0.28 | 0.00 | 82 | 1013.9 |
| 20260510114004 | 37 | 319 | 2.6 | 10.4 | 0.00 | 0.28 | 0.00 | 82 | 1013.9 |
| 20260510113504 | 37 | 306 | 2.6 | 7.0 | 0.00 | 0.28 | 0.00 | 82 | 1013.5 |
| 20260510113004 | 37 | 279 | 2.6 | 11.3 | 0.00 | 0.28 | 0.00 | 83 | 1013.9 |
| 20260510112003 | 36 | 176 | 1.7 | 11.3 | 0.00 | 0.28 | 0.00 | 83 | 1013.5 |
| 20260510111503 | 36 | 345 | 1.7 | 5.2 | 0.00 | 0.28 | 0.00 | 82 | 1013.5 |
| 20260510111003 | 36 | 318 | 4.3 | 5.2 | 0.00 | 0.28 | 0.00 | 82 | 1013.5 |
| 20260510110005 | 36 | 293 | 1.7 | 2.6 | 0.00 | 0.28 | 0.00 | 82 | 1013.2 |
| 20260510105504 | 36 | 287 | 0.9 | 2.6 | 0.00 | 0.28 | 0.00 | 82 | 1013.2 |
| 20260510105004 | 36 | 197 | 0.9 | 1.7 | 0.00 | 0.28 | 0.00 | 82 | 1012.9 |
| 20260510104504 | 36 | 318 | 1.7 | 1.7 | 0.00 | 0.28 | 0.00 | 81 | 1012.5 |
| 20260510104003 | 36 | 322 | 0.0 | 1.7 | 0.00 | 0.28 | 0.00 | 81 | 1012.9 |
| 20260510103504 | 37 | 58 | 0.0 | 1.7 | 0.00 | 0.28 | 0.00 | 81 | 1012.5 |
| 20260510103004 | 37 | 71 | 0.0 | 1.7 | 0.00 | 0.28 | 0.00 | 79 | 1012.5 |
| 20260510101005 | 38 | 47 | 0.0 | 1.7 | 0.00 | 0.28 | 0.00 | 78 | 1012.2 |
| 20260510100503 | 38 | 50 | 0.0 | 1.7 | 0.00 | 0.28 | 0.00 | 77 | 1012.2 |
| 20260510100004 | 38 | 87 | 0.9 | 1.7 | 0.00 | 0.28 | 0.00 | 77 | 1011.9 |
| 20260510095503 | 38 | 14 | 0.9 | 4.3 | 0.00 | 0.28 | 0.00 | 78 | 1011.9 |
| 20260510095005 | 37 | 47 | 0.9 | 4.3 | 0.00 | 0.28 | 0.00 | 78 | 1012.2 |
| 20260510094504 | 37 | 28 | 0.9 | 4.3 | 0.00 | 0.28 | 0.00 | 78 | 1011.9 |
| 20260510094004 | 37 | 97 | 0.9 | 6.1 | 0.00 | 0.28 | 0.00 | 78 | 1012.2 |
| 20260510093503 | 38 | 70 | 0.0 | 6.1 | 0.00 | 0.28 | 0.00 | 77 | 1011.9 |
| 20260510091503 | 37 | 58 | 0.0 | 2.6 | 0.00 | 0.28 | 0.00 | 78 | 1011.2 |
| 20260510091003 | 37 | 44 | 0.0 | 2.6 | 0.00 | 0.28 | 0.00 | 78 | 1011.2 |
| 20260510090503 | 36 | 338 | 0.0 | 2.6 | 0.00 | 0.28 | 0.00 | 79 | 1011.9 |
| 20260510090004 | 36 | 72 | 1.7 | 2.6 | 0.00 | 0.28 | 0.00 | 80 | 1011.5 |
| 20260510085503 | 35 | 298 | 0.0 | 1.7 | 0.00 | 0.28 | 0.00 | 81 | 1011.2 |
| 20260510085004 | 35 | 351 | 0.9 | 2.6 | 0.00 | 0.28 | 0.00 | 82 | 1011.5 |
| 20260510084504 | 35 | 47 | 0.0 | 2.6 | 0.00 | 0.28 | 0.00 | 81 | 1011.2 |
| 20260510084005 | 35 | 321 | 1.7 | 2.6 | 0.00 | 0.28 | 0.00 | 81 | 1011.4 |
| 20260510083503 | 35 | 184 | 0.0 | 2.6 | 0.00 | 0.28 | 0.00 | 81 | 1011.3 |
| 20260510083003 | 35 | 276 | 0.9 | 2.6 | 0.00 | 0.28 | 0.00 | 81 | 1011.2 |
| 20260510082504 | 35 | 63 | 0.0 | 7.0 | 0.00 | 0.28 | 0.00 | 80 | 1011.2 |
| 20260510081503 | 36 | 6 | 1.7 | 7.0 | 0.00 | 0.28 | 0.00 | 81 | 1011.0 |
| 20260510081005 | 35 | 35 | 1.7 | 7.0 | 0.00 | 0.28 | 0.00 | 80 | 1011.2 |
| 20260510080504 | 35 | 129 | 1.7 | 2.6 | 0.00 | 0.28 | 0.00 | 81 | 1011.1 |
| 20260510075503 | 35 | 117 | 0.9 | 2.6 | 0.00 | 0.28 | 0.00 | 82 | 1010.8 |
| 20260510075004 | 36 | 118 | 0.9 | 2.6 | 0.00 | 0.28 | 0.00 | 81 | 1010.8 |
| 20260510074504 | 36 | 72 | 0.9 | 2.6 | 0.00 | 0.28 | 0.00 | 82 | 1010.9 |
| 20260510074004 | 36 | 143 | 0.9 | 2.6 | 0.00 | 0.28 | 0.00 | 83 | 1011.2 |
| 20260510073505 | 35 | 30 | 0.0 | 2.6 | 0.00 | 0.28 | 0.00 | 83 | 1011.2 |
| 20260510073004 | 36 | 97 | 0.0 | 2.6 | 0.00 | 0.28 | 0.00 | 83 | 1010.8 |
| 20260510072004 | 37 | 130 | 0.9 | 2.6 | 0.00 | 0.28 | 0.00 | 81 | 1010.8 |
| 20260510071503 | 37 | 143 | 1.7 | 2.6 | 0.00 | 0.28 | 0.00 | 81 | 1010.8 |
| 20260510071005 | 37 | 141 | 1.7 | 4.3 | 0.00 | 0.28 | 0.00 | 80 | 1010.2 |
| 20260510070503 | 37 | 155 | 1.7 | 4.3 | 0.00 | 0.28 | 0.00 | 81 | 1010.2 |
| 20260510070004 | 37 | 100 | 1.7 | 4.3 | 0.00 | 0.28 | 0.00 | 81 | 1010.5 |
| 20260510065502 | 37 | 182 | 1.7 | 7.0 | 0.00 | 0.28 | 0.00 | 81 | 1010.2 |
| 20260510065002 | 37 | 350 | 2.6 | 7.0 | 0.00 | 0.28 | 0.00 | 80 | 1010.2 |
| 20260510064002 | 38 | 293 | 1.7 | 5.2 | 0.00 | 0.28 | 0.00 | 80 | 1009.8 |
| 20260510062502 | 38 | 289 | 0.0 | 7.8 | 0.00 | 0.28 | 0.00 | 78 | 1009.8 |
| 20260510062002 | 39 | 351 | 4.3 | 7.8 | 0.00 | 0.28 | 0.00 | 78 | 1009.5 |
| 20260510061503 | 39 | 314 | 2.6 | 7.8 | 0.00 | 0.28 | 0.00 | 77 | 1010.2 |
| 20260510061002 | 39 | 313 | 0.9 | 7.8 | 0.00 | 0.28 | 0.00 | 77 | 1010.2 |
| 20260510060503 | 39 | 294 | 4.3 | 7.8 | 0.00 | 0.28 | 0.00 | 77 | 1010.2 |
| 20260510060004 | 39 | 50 | 1.7 | 7.8 | 0.00 | 0.28 | 0.00 | 76 | 1010.2 |
| 20260510054502 | 40 | 308 | 5.2 | 7.0 | 0.00 | 0.28 | 0.00 | 74 | 1009.8 |
| 20260510053503 | 40 | 287 | 2.6 | 7.0 | 0.00 | 0.28 | 0.00 | 73 | 1009.8 |
| 20260510053003 | 40 | 274 | 2.6 | 7.0 | 0.00 | 0.28 | 0.00 | 73 | 1009.5 |
| 20260510052502 | 40 | 264 | 1.7 | 6.1 | 0.00 | 0.28 | 0.00 | 73 | 1009.8 |
| 20260510052003 | 41 | 27 | 0.0 | 7.8 | 0.00 | 0.28 | 0.00 | 73 | 1009.5 |
| 20260510051502 | 40 | 298 | 2.6 | 7.8 | 0.00 | 0.28 | 0.00 | 73 | 1009.5 |
| 20260510050505 | 40 | 94 | 0.0 | 2.6 | 0.00 | 0.28 | 0.00 | 74 | 1009.1 |
| 20260510045503 | 41 | 113 | 1.7 | 2.6 | 0.00 | 0.28 | 0.00 | 73 | 1009.1 |
| 20260510044502 | 40 | 144 | 0.0 | 4.3 | 0.00 | 0.28 | 0.00 | 77 | 1008.8 |
| 20260510044003 | 41 | 225 | 1.7 | 4.3 | 0.00 | 0.28 | 0.00 | 77 | 1009.1 |
| 20260510043502 | 41 | 169 | 1.7 | 4.3 | 0.00 | 0.28 | 0.00 | 77 | 1008.5 |
| 20260510043003 | 41 | 190 | 1.7 | 2.6 | 0.00 | 0.28 | 0.00 | 76 | 1008.5 |
| 20260510042503 | 41 | 153 | 0.9 | 2.6 | 0.00 | 0.28 | 0.00 | 77 | 1008.5 |
| 20260510042003 | 41 | 148 | 0.9 | 2.6 | 0.00 | 0.28 | 0.00 | 75 | 1008.8 |
| 20260510040502 | 42 | 155 | 0.9 | 2.6 | 0.00 | 0.28 | 0.00 | 73 | 1008.5 |
| 20260510040003 | 42 | 359 | 0.9 | 1.7 | 0.00 | 0.28 | 0.00 | 73 | 1008.8 |
| 20260510034503 | 42 | 329 | 1.7 | 4.3 | 0.00 | 0.28 | 0.28 | 75 | 1007.8 |
| 20260510033503 | 43 | 350 | 0.0 | 2.6 | 0.00 | 0.28 | 0.28 | 74 | 1008.5 |
| 20260510033003 | 42 | 304 | 0.0 | 2.6 | 0.00 | 0.28 | 0.28 | 75 | 1008.1 |
| 20260510031504 | 43 | 171 | 1.7 | 2.6 | 0.00 | 0.28 | 0.28 | 77 | 1008.1 |
| 20260510031003 | 43 | 170 | 0.9 | 2.6 | 0.00 | 0.28 | 0.28 | 77 | 1007.8 |
| 20260510030502 | 43 | 115 | 0.9 | 2.6 | 0.00 | 0.28 | 0.28 | 78 | 1008.1 |
| 20260510030002 | 43 | 332 | 0.9 | 2.6 | 0.00 | 0.28 | 0.28 | 77 | 1008.5 |
| 20260510025503 | 43 | 164 | 0.9 | 4.3 | 0.00 | 0.28 | 0.28 | 78 | 1008.5 |
| 20260510025002 | 43 | 151 | 0.0 | 4.3 | 0.00 | 0.28 | 0.28 | 79 | 1007.8 |
| 20260510024502 | 44 | 160 | 0.0 | 4.3 | 0.00 | 0.28 | 0.28 | 78 | 1008.1 |
| 20260510024003 | 43 | 136 | 0.9 | 2.6 | 0.00 | 0.28 | 0.28 | 80 | 1007.8 |
| 20260510023503 | 43 | 175 | 0.0 | 2.6 | 0.00 | 0.28 | 0.28 | 79 | 1007.8 |
| 20260510023003 | 43 | 346 | 0.0 | 1.7 | 0.00 | 0.28 | 0.28 | 79 | 1008.5 |
| 20260510022503 | 43 | 148 | 0.0 | 1.7 | 0.00 | 0.28 | 0.28 | 80 | 1008.1 |
| 20260510022003 | 43 | 278 | 0.0 | 1.7 | 0.00 | 0.28 | 0.28 | 80 | 1007.8 |
| 20260510021502 | 43 | 286 | 0.0 | 1.7 | 0.00 | 0.28 | 0.28 | 80 | 1007.8 |
| 20260510021003 | 44 | 294 | 0.0 | 1.7 | 0.00 | 0.28 | 0.28 | 80 | 1007.8 |
| 20260510020503 | 44 | 192 | 0.0 | 1.7 | 0.00 | 0.28 | 0.28 | 80 | 1007.6 |
| 20260510020003 | 44 | 181 | 0.0 | 5.2 | 0.00 | 0.28 | 0.28 | 80 | 1007.2 |
| 20260510015503 | 44 | 107 | 0.0 | 5.2 | 0.00 | 0.28 | 0.28 | 79 | 1007.5 |
| 20260510014503 | 45 | 322 | 1.7 | 11.3 | 0.00 | 0.28 | 0.28 | 79 | 1006.8 |
| 20260510014003 | 45 | 350 | 1.7 | 11.3 | 0.00 | 0.28 | 0.28 | 79 | 1006.6 |
| 20260510013003 | 45 | 338 | 1.7 | 13.0 | 0.00 | 0.28 | 0.28 | 79 | 1006.7 |
| 20260510012504 | 46 | 329 | 3.5 | 13.0 | 0.00 | 0.28 | 0.28 | 80 | 1006.5 |
| 20260510012003 | 46 | 304 | 5.2 | 13.0 | 0.00 | 0.28 | 0.28 | 80 | 1006.7 |
| 20260510011503 | 46 | 299 | 4.3 | 13.0 | 0.00 | 0.28 | 0.28 | 81 | 1006.1 |
| 20260510011003 | 46 | 276 | 2.6 | 7.8 | 0.00 | 0.28 | 0.28 | 81 | 1006.1 |
| 20260510010503 | 46 | 324 | 3.5 | 7.8 | 0.00 | 0.28 | 0.28 | 82 | 1006.1 |
| 20260510010002 | 46 | 293 | 2.6 | 7.8 | 0.00 | 0.28 | 0.28 | 83 | 1005.8 |
| 20260510005003 | 47 | 346 | 1.7 | 8.7 | 0.00 | 0.28 | 0.28 | 82 | 1005.8 |
| 20260510004003 | 47 | 320 | 4.3 | 11.3 | 0.00 | 0.28 | 0.28 | 81 | 1005.8 |
| 20260510003503 | 48 | 301 | 5.2 | 11.3 | 0.00 | 0.28 | 0.28 | 81 | 1005.8 |
| 20260510003004 | 48 | 305 | 5.2 | 15.6 | 0.00 | 0.28 | 0.28 | 82 | 1005.8 |
| 20260510002503 | 49 | 318 | 5.2 | 21.7 | 0.00 | 0.28 | 0.28 | 82 | 1005.4 |
| 20260510002003 | 49 | 287 | 9.6 | 21.7 | 0.00 | 0.28 | 0.28 | 81 | 1005.4 |
| 20260510001503 | 50 | 326 | 7.8 | 21.7 | 0.00 | 0.28 | 0.28 | 82 | 1005.4 |
| 20260510001003 | 49 | 278 | 5.2 | 12.2 | 0.00 | 0.28 | 0.28 | 90 | 1005.1 |
| 20260510000503 | 49 | 182 | 1.7 | 2.6 | 0.00 | 0.28 | 0.28 | 94 | 1004.7 |
| 20260510000004 | 49 | 161 | 0.9 | 4.3 | 0.00 | 0.28 | 0.28 | 96 | 1004.4 |
| 20260509235503 | 49 | 192 | 2.6 | 5.2 | 0.00 | 0.28 | 0.28 | 97 | 1004.4 |
| 20260509235004 | 49 | 165 | 1.7 | 6.1 | 0.00 | 0.28 | 0.28 | 97 | 1004.4 |
| 20260509234503 | 49 | 186 | 2.6 | 6.1 | 0.00 | 0.28 | 0.28 | 97 | 1004.1 |
| 20260509234003 | 49 | 174 | 2.6 | 6.1 | 0.00 | 0.28 | 0.28 | 97 | 1004.4 |
| 20260509233502 | 49 | 158 | 1.7 | 4.3 | 0.00 | 0.28 | 0.28 | 97 | 1004.1 |
| 20260509233003 | 49 | 182 | 4.3 | 5.2 | 0.00 | 0.28 | 0.28 | 97 | 1004.4 |
| 20260509232003 | 49 | 173 | 2.6 | 7.0 | 0.00 | 0.28 | 0.28 | 97 | 1004.1 |
| 20260509231503 | 49 | 219 | 2.6 | 7.0 | 0.00 | 0.28 | 0.28 | 96 | 1004.1 |
| 20260509231003 | 49 | 201 | 6.1 | 7.0 | 0.00 | 0.28 | 0.28 | 97 | 1004.1 |
| 20260509230503 | 49 | 196 | 2.6 | 7.0 | 0.00 | 0.28 | 0.28 | 97 | 1004.1 |
| 20260509230003 | 49 | 123 | 1.7 | 7.0 | 0.00 | 0.28 | 0.28 | 97 | 1003.7 |
| 20260509225003 | 48 | 264 | 0.0 | 7.0 | 0.02 | 0.28 | 0.28 | 98 | 1003.7 |
| 20260509224503 | 48 | 156 | 1.7 | 7.0 | 0.05 | 0.28 | 0.28 | 98 | 1003.7 |
| 20260509224004 | 48 | 179 | 1.7 | 7.0 | 0.09 | 0.28 | 0.28 | 98 | 1003.4 |
| 20260509223003 | 47 | 193 | 1.7 | 7.0 | 0.16 | 0.28 | 0.28 | 99 | 1003.4 |
| 20260509222504 | 47 | 175 | 5.2 | 6.1 | 0.19 | 0.28 | 0.28 | 99 | 1003.7 |
| 20260509222003 | 47 | 184 | 2.6 | 8.7 | 0.20 | 0.28 | 0.28 | 99 | 1003.7 |
| 20260509221003 | 47 | 213 | 0.0 | 8.7 | 0.23 | 0.28 | 0.28 | 99 | 1004.1 |
| 20260509220504 | 46 | 161 | 2.6 | 7.8 | 0.25 | 0.28 | 0.28 | 99 | 1003.7 |
| 20260509220003 | 46 | 214 | 1.7 | 7.8 | 0.26 | 0.28 | 0.28 | 99 | 1004.1 |
| 20260509215503 | 46 | 170 | 2.6 | 7.8 | 0.25 | 0.27 | 0.27 | 98 | 1004.1 |
| 20260509214503 | 47 | 238 | 1.7 | 10.4 | 0.22 | 0.23 | 0.23 | 98 | 1004.7 |
| 20260509214003 | 47 | 213 | 1.7 | 10.4 | 0.19 | 0.19 | 0.19 | 97 | 1004.1 |
| 20260509213003 | 48 | 271 | 2.6 | 11.3 | 0.12 | 0.12 | 0.12 | 92 | 1005.1 |
| 20260509212502 | 50 | 207 | 5.2 | 11.3 | 0.09 | 0.09 | 0.09 | 88 | 1004.4 |
| 20260509212003 | 51 | 243 | 1.7 | 10.4 | 0.08 | 0.08 | 0.08 | 83 | 1004.1 |
| 20260509211504 | 52 | 336 | 2.6 | 10.4 | 0.07 | 0.07 | 0.07 | 85 | 1003.7 |
| 20260509211003 | 53 | 195 | 5.2 | 18.2 | 0.05 | 0.05 | 0.05 | 85 | 1003.0 |
| 20260509210502 | 54 | 177 | 1.7 | 18.2 | 0.03 | 0.03 | 0.03 | 85 | 1003.4 |
| 20260509210005 | 54 | 182 | 2.6 | 18.2 | 0.02 | 0.02 | 0.02 | 84 | 1002.7 |
| 20260509205503 | 54 | 209 | 11.3 | 13.9 | 0.02 | 0.02 | 0.02 | 82 | 1003.0 |
| 20260509205002 | 55 | 190 | 6.1 | 17.4 | 0.01 | 0.01 | 0.01 | 82 | 1003.0 |
| 20260509204504 | 55 | 176 | 2.6 | 17.4 | 0.01 | 0.01 | 0.01 | 81 | 1002.7 |
| 20260509204003 | 56 | 205 | 15.6 | 17.4 | 0.00 | 0.00 | 0.00 | 78 | 1002.4 |
| 20260509203004 | 57 | 200 | 10.4 | 20.0 | 0.00 | 0.00 | 0.00 | 77 | 1002.4 |
| 20260509202502 | 57 | 170 | 8.7 | 20.0 | 0.00 | 0.00 | 0.00 | 76 | 1002.4 |
| 20260509201503 | 57 | 189 | 9.6 | 22.6 | 0.00 | 0.00 | 0.00 | 75 | 1002.4 |
| 20260509200504 | 58 | 202 | 10.4 | 22.6 | 0.00 | 0.00 | 0.00 | 75 | 1002.4 |
| 20260509200005 | 58 | 194 | 7.0 | 17.4 | 0.00 | 0.00 | 0.00 | 75 | 1002.4 |
| 20260509195503 | 58 | 144 | 5.2 | 17.4 | 0.00 | 0.00 | 0.00 | 74 | 1002.4 |
| 20260509195003 | 58 | 199 | 4.3 | 17.4 | 0.00 | 0.00 | 0.00 | 72 | 1002.4 |
| 20260509194504 | 59 | 168 | 6.1 | 19.1 | 0.00 | 0.00 | 0.00 | 71 | 1003.0 |
| 20260509194003 | 59 | 201 | 11.3 | 19.1 | 0.00 | 0.00 | 0.00 | 69 | 1003.0 |
| 20260509193503 | 59 | 200 | 10.4 | 19.1 | 0.00 | 0.00 | 0.00 | 69 | 1003.0 |
| 20260509193005 | 59 | 208 | 5.2 | 15.6 | 0.00 | 0.00 | 0.00 | 71 | 1002.7 |
| 20260509192503 | 58 | 177 | 5.2 | 18.2 | 0.00 | 0.00 | 0.00 | 72 | 1003.0 |
| 20260509192003 | 58 | 204 | 6.1 | 19.1 | 0.00 | 0.00 | 0.00 | 73 | 1002.7 |
| 20260509191504 | 57 | 194 | 10.4 | 19.1 | 0.00 | 0.00 | 0.00 | 73 | 1003.0 |
| 20260509191003 | 57 | 204 | 12.2 | 19.1 | 0.00 | 0.00 | 0.00 | 73 | 1003.0 |
| 20260509190503 | 58 | 194 | 7.8 | 19.1 | 0.00 | 0.00 | 0.00 | 72 | 1003.0 |
| 20260509190003 | 58 | 200 | 7.0 | 19.1 | 0.00 | 0.00 | 0.00 | 71 | 1003.4 |
| 20260509185503 | 58 | 205 | 8.7 | 19.1 | 0.00 | 0.00 | 0.00 | 70 | 1003.0 |
| 20260509185003 | 58 | 184 | 5.2 | 22.6 | 0.00 | 0.00 | 0.00 | 71 | 1003.4 |
| 20260509183503 | 58 | 179 | 10.4 | 21.7 | 0.00 | 0.00 | 0.00 | 68 | 1003.7 |
| 20260509183004 | 58 | 210 | 13.0 | 21.7 | 0.00 | 0.00 | 0.00 | 67 | 1003.7 |
| 20260509182502 | 59 | 193 | 12.2 | 18.2 | 0.00 | 0.00 | 0.00 | 68 | 1004.1 |
| 20260509182004 | 58 | 191 | 8.7 | 18.2 | 0.00 | 0.00 | 0.00 | 67 | 1003.7 |
| 20260509181503 | 59 | 189 | 10.4 | 14.8 | 0.00 | 0.00 | 0.00 | 67 | 1003.7 |
| 20260509180503 | 59 | 175 | 7.8 | 17.4 | 0.00 | 0.00 | 0.00 | 69 | 1003.4 |
| 20260509180003 | 58 | 155 | 10.4 | 17.4 | 0.00 | 0.00 | 0.00 | 68 | 1003.4 |
| 20260509175504 | 59 | 179 | 1.7 | 17.4 | 0.00 | 0.00 | 0.00 | 69 | 1003.7 |
| 20260509175003 | 58 | 209 | 7.8 | 14.8 | 0.00 | 0.00 | 0.00 | 67 | 1003.4 |
| 20260509174503 | 58 | 196 | 4.3 | 14.8 | 0.00 | 0.00 | 0.00 | 70 | 1004.1 |
| 20260509173503 | 59 | 159 | 6.1 | 15.6 | 0.00 | 0.00 | 0.00 | 68 | 1004.1 |
| 20260509173004 | 59 | 204 | 15.6 | 15.6 | 0.00 | 0.00 | 0.00 | 68 | 1004.4 |
| 20260509172504 | 58 | 204 | 8.7 | 14.8 | 0.00 | 0.00 | 0.00 | 70 | 1004.4 |
| 20260509172004 | 59 | 152 | 7.0 | 14.8 | 0.00 | 0.00 | 0.00 | 69 | 1005.1 |
| 20260509171003 | 57 | 164 | 8.7 | 13.0 | 0.00 | 0.00 | 0.00 | 72 | 1004.7 |
| 20260509170503 | 58 | 162 | 7.0 | 13.0 | 0.00 | 0.00 | 0.00 | 72 | 1005.1 |
| 20260509165503 | 56 | 142 | 12.2 | 13.0 | 0.00 | 0.00 | 0.00 | 73 | 1005.4 |
| 20260509165005 | 57 | 215 | 5.2 | 11.3 | 0.00 | 0.00 | 0.00 | 74 | 1005.4 |
| 20260509164503 | 57 | 186 | 7.0 | 11.3 | 0.00 | 0.00 | 0.00 | 74 | 1005.4 |
| 20260509164005 | 57 | 207 | 1.7 | 11.3 | 0.00 | 0.00 | 0.00 | 74 | 1005.8 |
| 20260509163003 | 56 | 182 | 5.2 | 13.0 | 0.00 | 0.00 | 0.00 | 75 | 1005.8 |
| 20260509162503 | 55 | 195 | 5.2 | 13.0 | 0.00 | 0.00 | 0.00 | 75 | 1006.1 |
| 20260509161503 | 54 | 195 | 7.0 | 12.2 | 0.00 | 0.00 | 0.00 | 76 | 1006.4 |
| 20260509161004 | 54 | 213 | 8.7 | 14.8 | 0.00 | 0.00 | 0.00 | 77 | 1006.4 |
| 20260509160503 | 54 | 203 | 7.8 | 14.8 | 0.00 | 0.00 | 0.00 | 77 | 1006.4 |
| 20260509160005 | 54 | 143 | 5.2 | 15.6 | 0.00 | 0.00 | 0.00 | 77 | 1006.4 |
| 20260509155503 | 55 | 175 | 2.6 | 15.6 | 0.00 | 0.00 | 0.00 | 77 | 1006.1 |
| 20260509155003 | 55 | 174 | 6.1 | 15.6 | 0.00 | 0.00 | 0.00 | 76 | 1006.1 |
| 20260509154503 | 55 | 169 | 6.1 | 13.0 | 0.00 | 0.00 | 0.00 | 77 | 1006.1 |
| 20260509154003 | 54 | 211 | 11.3 | 13.9 | 0.00 | 0.00 | 0.00 | 78 | 1006.4 |
| 20260509153505 | 54 | 191 | 7.0 | 13.9 | 0.00 | 0.00 | 0.00 | 78 | 1006.4 |
| 20260509153004 | 53 | 196 | 12.2 | 13.9 | 0.00 | 0.00 | 0.00 | 78 | 1006.8 |
| 20260509152504 | 53 | 182 | 8.7 | 13.0 | 0.00 | 0.00 | 0.00 | 78 | 1007.1 |
| 20260509152005 | 53 | 198 | 6.1 | 13.0 | 0.00 | 0.00 | 0.00 | 77 | 1006.8 |
| 20260509151503 | 54 | 197 | 8.7 | 12.2 | 0.00 | 0.00 | 0.00 | 78 | 1006.8 |
| 20260509151004 | 54 | 188 | 5.2 | 12.2 | 0.00 | 0.00 | 0.00 | 77 | 1006.8 |
| 20260509150503 | 54 | 191 | 5.2 | 13.9 | 0.00 | 0.00 | 0.00 | 77 | 1006.8 |
| 20260509150005 | 55 | 196 | 6.1 | 13.9 | 0.00 | 0.00 | 0.00 | 76 | 1006.8 |
| 20260509145005 | 55 | 186 | 10.4 | 17.4 | 0.00 | 0.00 | 0.00 | 76 | 1006.8 |
| 20260509144503 | 54 | 182 | 6.1 | 17.4 | 0.00 | 0.00 | 0.00 | 76 | 1006.8 |
| 20260509143003 | 53 | 173 | 5.2 | 14.8 | 0.00 | 0.00 | 0.00 | 77 | 1006.8 |
| 20260509142503 | 52 | 187 | 6.1 | 14.8 | 0.00 | 0.00 | 0.00 | 78 | 1007.1 |
| 20260509142004 | 52 | 188 | 8.7 | 15.6 | 0.00 | 0.00 | 0.00 | 79 | 1007.1 |
| 20260509141505 | 51 | 202 | 9.6 | 15.6 | 0.00 | 0.00 | 0.00 | 80 | 1007.1 |
| 20260509141004 | 51 | 189 | 7.0 | 15.6 | 0.00 | 0.00 | 0.00 | 79 | 1006.8 |
| 20260509140503 | 52 | 190 | 5.2 | 17.4 | 0.00 | 0.00 | 0.00 | 79 | 1007.1 |
| 20260509140003 | 51 | 190 | 2.6 | 17.4 | 0.00 | 0.00 | 0.00 | 80 | 1007.5 |
| 20260509135503 | 51 | 168 | 3.5 | 17.4 | 0.00 | 0.00 | 0.00 | 79 | 1007.1 |
| 20260509134003 | 52 | 148 | 5.2 | 13.0 | 0.00 | 0.00 | 0.00 | 78 | 1007.1 |
| 20260509133504 | 51 | 138 | 6.1 | 11.3 | 0.00 | 0.00 | 0.00 | 78 | 1007.1 |
| 20260509133005 | 51 | 207 | 5.2 | 11.3 | 0.00 | 0.00 | 0.00 | 78 | 1007.5 |
| 20260509132003 | 51 | 202 | 7.0 | 11.3 | 0.00 | 0.00 | 0.00 | 77 | 1007.5 |
| 20260509131503 | 50 | 199 | 6.1 | 11.3 | 0.00 | 0.00 | 0.00 | 78 | 1007.5 |